Total_Precipitation_Accumulation
1.80 1.94 2.09 2.19 2.08 1.80 1.66 1.56 1.44 1.23 1.05 0.92 0.77 0.61 0.68 0.74 0.90 0.76 0.59 0.60 0.45 0.30 0.23 0.22 0.22 0.19 0.20 0.22 0.25 0.26 0.28 0.25 0.18 0.13 0.11 0.11 0.09 0.09
1.65 1.76 1.79 1.87 2.06 2.01 1.79 1.70 1.55 1.34 1.16 0.98 0.90 0.76 0.83 0.82 0.92 0.75 0.72 0.80 0.59 0.43 0.30 0.26 0.23 0.18 0.15 0.14 0.12 0.11 0.12 0.14 0.14 0.12 0.11 0.11 0.11 0.12
1.31 1.40 1.52 1.79 2.10 2.12 2.06 1.91 1.72 1.52 1.24 1.08 0.88 0.73 0.91 0.97 0.94 0.83 0.79 0.74 0.59 0.53 0.42 0.33 0.27 0.22 0.18 0.14 0.10 0.09 0.08 0.08 0.09 0.09 0.10 0.11 0.12 0.14
1.06 1.16 1.28 1.59 1.95 2.17 2.25 2.14 1.95 1.76 1.58 1.40 1.09 0.80 0.82 1.08 1.20 1.12 0.93 0.80 0.71 0.70 0.62 0.48 0.37 0.30 0.23 0.18 0.13 0.11 0.08 0.07 0.06 0.07 0.10 0.12 0.12 0.14
1.08 1.11 1.13 1.30 1.51 1.75 1.94 2.04 2.01 1.98 1.88 1.62 1.36 1.09 0.94 0.99 1.21 1.21 1.09 1.04 0.93 0.89 0.90 0.79 0.65 0.52 0.41 0.32 0.26 0.19 0.14 0.11 0.09 0.09 0.09 0.11 0.12 0.14
0.88 0.95 1.01 1.03 1.17 1.35 1.49 1.67 1.86 2.05 2.09 1.92 1.66 1.38 1.23 1.05 1.08 1.20 1.25 1.18 1.12 0.98 0.95 0.91 0.89 0.78 0.64 0.51 0.42 0.33 0.28 0.24 0.21 0.19 0.17 0.16 0.15 0.15
0.81 0.80 0.85 0.87 0.90 1.05 1.11 1.33 1.64 1.88 1.97 2.00 1.87 1.59 1.35 1.15 0.92 0.95 1.14 1.32 1.32 1.23 1.22 1.07 0.98 0.87 0.79 0.72 0.66 0.56 0.47 0.40 0.35 0.31 0.29 0.27 0.26 0.25
0.79 0.79 0.79 0.72 0.71 0.75 0.85 0.98 1.26 1.44 1.57 1.61 1.61 1.46 1.29 1.15 1.05 1.02 1.03 1.08 1.15 1.09 1.08 1.15 1.10 1.01 0.96 0.88 0.90 0.90 0.80 0.69 0.60 0.54 0.50 0.46 0.44 0.43
0.81 0.83 0.81 0.75 0.77 0.76 0.74 0.74 0.81 0.99 1.17 1.34 1.36 1.27 1.31 1.21 1.11 1.02 1.02 0.97 0.91 0.98 1.01 1.05 1.07 1.05 1.02 1.01 1.05 0.98 0.91 0.81 0.72 0.66 0.61 0.56 0.52 0.47
0.79 0.75 0.81 0.82 0.85 0.88 0.78 0.80 0.75 0.76 0.84 0.89 1.03 1.23 1.34 1.45 1.39 1.26 1.24 1.19 1.11 1.08 1.05 1.04 0.96 0.92 0.88 0.89 0.93 0.82 0.73 0.70 0.69 0.67 0.62 0.56 0.49 0.46
0.81 0.80 0.87 0.88 1.00 1.01 0.89 0.93 0.88 0.84 0.81 0.92 1.03 1.13 1.20 1.29 1.37 1.32 1.27 1.22 1.15 1.07 0.97 0.91 0.86 0.83 0.82 0.75 0.73 0.72 0.63 0.57 0.53 0.51 0.50 0.49 0.47 0.45
0.95 0.93 1.10 1.04 0.98 0.91 0.87 1.00 0.99 0.82 0.72 0.76 0.82 0.89 0.92 0.99 1.10 1.08 1.13 1.15 1.09 1.01 0.83 0.75 0.79 0.78 0.81 0.72 0.63 0.60 0.57 0.57 0.53 0.48 0.44 0.43 0.44 0.40
1.03 0.98 0.91 1.02 0.93 0.84 0.84 0.89 1.02 0.88 0.78 0.79 0.77 0.77 0.80 0.82 0.86 0.90 0.95 0.98 0.98 0.91 0.76 0.71 0.73 0.70 0.62 0.57 0.57 0.55 0.51 0.48 0.49 0.51 0.51 0.49 0.46 0.41
0.99 0.90 0.80 1.01 0.94 0.82 0.76 0.77 0.89 0.94 0.88 0.89 0.86 0.78 0.74 0.71 0.69 0.72 0.79 0.84 0.86 0.83 0.77 0.70 0.69 0.64 0.57 0.51 0.49 0.52 0.53 0.50 0.49 0.49 0.49 0.56 0.56 0.54
0.86 0.87 0.88 0.90 0.80 0.74 0.82 0.83 0.82 0.86 0.93 0.94 0.81 0.65 0.60 0.58 0.63 0.71 0.81 0.87 0.90 0.83 0.76 0.72 0.68 0.67 0.62 0.53 0.47 0.46 0.50 0.49 0.46 0.45 0.45 0.47 0.50 0.55
0.66 0.70 0.74 0.70 0.68 0.70 0.74 0.82 0.83 0.86 0.88 0.84 0.72 0.57 0.53 0.55 0.58 0.62 0.72 0.83 0.96 0.95 0.90 0.89 0.85 0.78 0.74 0.65 0.55 0.52 0.49 0.47 0.46 0.47 0.45 0.43 0.42 0.44
0.71 0.65 0.68 0.67 0.66 0.64 0.67 0.68 0.70 0.68 0.68 0.67 0.64 0.62 0.61 0.59 0.56 0.55 0.59 0.61 0.64 0.67 0.73 0.81 0.90 0.93 0.86 0.80 0.75 0.64 0.59 0.56 0.53 0.53 0.52 0.47 0.43 0.40
0.95 0.98 0.98 0.92 0.82 0.71 0.61 0.53 0.49 0.50 0.54 0.58 0.59 0.56 0.55 0.56 0.56 0.55 0.57 0.59 0.57 0.52 0.51 0.56 0.69 0.89 0.99 0.92 0.78 0.69 0.65 0.61 0.58 0.59 0.54 0.48 0.43 0.42
1.02 1.03 1.01 0.87 0.72 0.65 0.52 0.39 0.32 0.34 0.40 0.41 0.45 0.49 0.47 0.46 0.49 0.49 0.48 0.51 0.53 0.49 0.49 0.50 0.55 0.64 0.73 0.70 0.63 0.58 0.59 0.61 0.64 0.63 0.59 0.51 0.44 0.44
0.72 0.71 0.64 0.55 0.47 0.38 0.35 0.30 0.23 0.25 0.30 0.31 0.35 0.37 0.36 0.38 0.40 0.44 0.44 0.43 0.45 0.42 0.40 0.41 0.42 0.42 0.44 0.48 0.49 0.48 0.49 0.52 0.54 0.51 0.47 0.48 0.46 0.51
0.39 0.32 0.26 0.22 0.20 0.17 0.18 0.18 0.16 0.17 0.20 0.24 0.26 0.28 0.28 0.30 0.34 0.37 0.39 0.41 0.40 0.39 0.37 0.34 0.33 0.39 0.42 0.49 0.50 0.41 0.39 0.48 0.49 0.44 0.43 0.47 0.48 0.47
0.16 0.14 0.12 0.08 0.09 0.08 0.08 0.09 0.09 0.12 0.14 0.17 0.18 0.21 0.24 0.24 0.27 0.30 0.32 0.34 0.33 0.29 0.28 0.29 0.33 0.39 0.41 0.43 0.42 0.37 0.35 0.41 0.54 0.62 0.54 0.48 0.41 0.35
0.09 0.09 0.07 0.07 0.06 0.06 0.08 0.10 0.11 0.12 0.13 0.16 0.16 0.17 0.20 0.23 0.24 0.26 0.28 0.28 0.30 0.30 0.26 0.26 0.30 0.34 0.37 0.37 0.39 0.41 0.43 0.43 0.46 0.53 0.58 0.63 0.51 0.35